Flag for Netherlands Weather past 2 weeks in Leiden, Netherlands

Now
82 °F

Clear.


Feels Like: 86 °F
Forecast: 62 / 73 °F
Wind: 12 mph from South

Location: Rotterdam Zestienhoven Airport

Current Time: Jul 4, 2015 at 9:58:21 AM

Latest Report: Jul 4, 2015 at 9:25 AM


Visibility: N/A

Pressure: 30.01 "Hg

Humidity: 66%

Dew point: 70 °F

Location of LeidenLocation

Historic Weather in Leiden — Graph

°F

Leiden temperature yesterday

Maximum temperature yesterday: 82 °F (at 2:25 PM)
Minimum temperature yesterday: 63 °F (at 4:25 AM)
Average temperature yesterday: 73 °F

Past Weeks' High & Low Weather Summary

 TemperatureHumidityPressure
High93 °F (Jul 1, 4:25 PM)100% (Jun 21, 11:25 AM)30.27 "Hg (Jun 21, 11:25 AM)
Low50 °F (Jun 23, 3:55 AM)28% (Jul 1, 5:25 PM)29.71 "Hg (Jun 22, 5:25 PM)
Average65 °F72%30.06 "Hg
* Reported Jun 19 7:25 AM — Jul 4 7:55 AM, Leiden, Weather by CustomWeather, © 2015

Note: Actual official high and low records may vary slightly from our data, if they occured in-between our weather recording intervals... More about our weather records

Advertising

Leiden weather history for previous 24 hours

 ConditionsComfort  
Time TempWeatherWind HumidityBarometerVisibility
7:55 AM
Sat, Jul 4
77 °FClear.9 mph74%29.98 "HgN/A
7:25 AM75 °FClear.8 mph78%29.98 "HgN/A
6:55 AM75 °FClear.12 mph78%29.98 "HgN/A
6:25 AM73 °FClear.12 mph83%29.98 "HgN/A
5:55 AM73 °FClear.14 mph83%30.01 "HgN/A
5:25 AM73 °FClear.14 mph83%30.01 "HgN/A
4:55 AM73 °FMild.12 mph83%30.01 "HgN/A
4:25 AM73 °FClear.10 mph83%30.04 "HgN/A
3:55 AM73 °FClear.12 mph83%30.04 "HgN/A
3:25 AM73 °FClear.15 mph83%30.04 "HgN/A
2:55 AM73 °FClear.14 mph89%30.07 "HgN/A
2:25 AM73 °FMild.13 mph83%30.07 "HgN/A
1:55 AM75 °FMild.13 mph78%30.09 "HgN/A
1:25 AM75 °FClear.12 mph78%30.12 "HgN/A
12:55 AM75 °FClear.10 mph78%30.12 "HgN/A
12:25 AM73 °FMild.9 mph89%30.12 "HgN/A
11:55 PM
Fri, Jul 3
72 °FMild.9 mph94%30.12 "Hg6 mi
11:25 PM73 °FMild.9 mph83%30.15 "HgN/A
10:55 PM73 °FMild.9 mph83%30.15 "HgN/A
10:25 PM73 °FMild.9 mph83%30.15 "HgN/A
9:55 PM75 °FMild.12 mph78%30.15 "HgN/A
9:25 PM77 °FWarm.13 mph74%30.15 "HgN/A
8:55 PM79 °FClear.14 mph65%30.15 "HgN/A
8:25 PM79 °FClear.14 mph65%30.15 "HgN/A
7:55 PM81 °FClear.13 mph58%30.18 "HgN/A
7:25 PM81 °FClear.13 mph54%30.18 "HgN/A
6:55 PM81 °FClear.8 mph62%30.18 "HgN/A
6:25 PM81 °FClear.8 mph58%30.18 "HgN/A
5:55 PM81 °FClear.9 mph62%30.21 "HgN/A
5:25 PM81 °FWarm.9 mph58%30.21 "HgN/A
4:55 PM81 °FClear.10 mph58%30.21 "HgN/A
4:25 PM82 °FClear.9 mph55%30.21 "HgN/A
3:55 PM82 °FClear.9 mph55%30.24 "HgN/A
3:25 PM82 °FClear.8 mph55%30.24 "HgN/A
2:55 PM81 °FClear.9 mph58%30.24 "HgN/A
2:25 PM82 °FWarm.7 mph55%30.24 "HgN/A
1:55 PM81 °FClear.6 mph58%30.24 "HgN/A
1:25 PM81 °FClear.5 mph58%30.24 "HgN/A
12:55 PM79 °FWarm.3 mph61%30.24 "HgN/A
12:25 PM77 °FWarm.2 mph65%30.24 "HgN/A
11:55 AM77 °FClear.5 mph65%30.24 "HgN/A
11:25 AM75 °FClear.3 mph65%30.24 "HgN/A
10:55 AM73 °FClear.2 mph74%30.24 "HgN/A
10:25 AM72 °FMild.3 mph78%30.24 "HgN/A
9:55 AM70 °FMild.5 mph78%30.27 "HgN/A
9:25 AM70 °FClear.5 mph78%30.24 "HgN/A
Weather by CustomWeather, © 2015

See weather overviewHow to use our weather pages